Saint Augustine, FL (32080)

8:46 PM EDT on June 23, 2017 (GMT -0400)
St Augustine: Blvd Des Pins - Dondanville Rd | | Change Station

Elev 10 ft 29.82 °N, 81.27 °W | Updated 20 seconds ago

Clear
Clear
79.7 °F
Feels Like 86 °F
N
0.0
Wind Variable Wind from SW
Gusts 0.0 mph

Today
High -- | Low -- °F
--% Chance of Precip.
Yesterday
High -- | Low -- °F
Precip. -- in
Pressure 30.00 in
Visibility 10.0 miles
Clouds Clear
Heat Index 86 °F
Dew Point 80 °F
Humidity 99%
Rainfall 0.05 in
Snow Depth Not available.
6:25 AM 8:29 PM
Waning Crescent, 0% visible
METAR KSGJ 232356Z 15012KT 10SM CLR 27/24 A3000 RMK AO2 SLP157 T02720239 10311 20272 58005
Pressure 30.00 in
Visibility 10.0 miles
Clouds Clear
Heat Index 86 °F
Dew Point 80 °F
Humidity 99%
Rainfall 0.05 in
Snow Depth Not available.
6:25 AM 8:29 PM
Waning Crescent, 0% visible
METAR KSGJ 232356Z 15012KT 10SM CLR 27/24 A3000 RMK AO2 SLP157 T02720239 10311 20272 58005

Get Severe Weather Alerts

Thanks for signing up!

Be on the lookout for a verification email in your inbox.

You'll start receiving the daily forecast at 6 AM.

×

10-Day Weather Forecast

Almanac

Astronomy

Jun. 23, 2017 Rise Set
Actual Time
Civil Twilight
Nautical Twilight
Astronomical Twilight
Moon
Length of Visible Light
Length of Day
Tomorrow will be .
, % of the Moon is Illuminated

Today's Extremes

State Highs State Lows

Community

WunderPhotos

Category 6

Welcome to Category 6. This is the collective home for Weather Underground's featured writeups by Dr. Jeff Masters (right), Bob Henson (left), Chris Burt, and other regular contributors.

Nearby

Air Quality

  Air Quality AQ Index Pollutant
Not available.

Snow Depth

Station Depth Elevation

Earthquake Activity

City Distance Mag. Time & Date
Minimum magnitude displayed is 2.5.

Coastal Water Temperatures

Place Temperature

Stations

Nearby Weather Stations

Station Location Temp. Windchill Dew Point Humidity Wind Precip. Elev Updated Type
                   

Watches & Warnings

There are currently no watches in effect.